Weather History for KMCK - December, 2013

Change the Weather History Date:

Tuesday, December 17, 2013

  Actual Average Record
Temperature  
Mean Temperature 37 °F 27 °F  
Max Temperature 52 °F 40 °F 74 °F (1980)
Min Temperature 21 °F 14 °F -7 °F (1989)
Degree Days  
Heating Degree Days 28    
Moisture  
Dew Point 20 °F    
Average Humidity 57    
Maximum Humidity 82    
Minimum Humidity 32    
Precipitation  
Precipitation 0.00 in 0.02 in 0.25 in (1977)
Month to date precipitation T 0.36  
Year to date precipitation 12.61 22.25  
Sea Level Pressure  
Sea Level Pressure 30.27 in    
Wind  
Wind Speed 7 mph (WSW)    
Max Wind Speed 13 mph    
Max Gust Speed -    
Visibility 10 miles    
Events      
T = Trace of Precipitation, MM = Missing Value Source: NWS Daily Summary

Daily Weather History Graph

Daily Weather History Graph

Search for Another Location

Airport or City:

Trip Planner

Search our weather history database for the weather conditions in past years. The results will help you decide how hot, cold, wet, or windy it might be!

Date:

Astronomy

Dec. 17, 2013 Rise Set
Actual Time 7:59 AM CST 5:18 PM CST
Civil Twilight 7:28 AM CST 5:48 PM CST
Nautical Twilight 6:54 AM CST 6:23 PM CST
Astronomical Twilight 6:21 AM CST 6:56 PM CST
Moon 5:59 PM CST (12/17) 7:56 AM CST (12/17)
Length of Visible Light 10h 20m
Length of Day
9h 18m
Full, 100% of the Moon is Illuminated
Dec 17
Full
Dec 25
Last Quarter
Jan 1
New
Jan 7
First Quarter
Jan 15
Full

Hourly Weather History & Observations

Time (CST) Temp. Windchill Dew Point Humidity Pressure Visibility Wind Dir Wind Speed Gust Speed Precip Events Conditions
12:53 AM 28.9 °F 23.9 °F 19.9 °F 69% 30.24 in 10.0 mi North 4.6 mph - N/A   Clear
1:53 AM 28.9 °F 21.9 °F 21.9 °F 75% 30.24 in 10.0 mi WNW 6.9 mph - N/A   Clear
2:53 AM 26.1 °F 17.6 °F 19.9 °F 78% 30.26 in 10.0 mi WNW 8.1 mph - N/A   Clear
3:53 AM 23.0 °F 18.4 °F 18.0 °F 81% 30.28 in 10.0 mi West 3.5 mph - N/A   Clear
4:53 AM 24.1 °F 15.2 °F 18.0 °F 77% 30.30 in 10.0 mi West 8.1 mph - N/A   Clear
5:53 AM 23.0 °F 13.9 °F 18.0 °F 81% 30.32 in 10.0 mi WSW 8.1 mph - N/A   Clear
6:53 AM 21.9 °F 11.7 °F 17.1 °F 82% 30.37 in 10.0 mi WSW 9.2 mph - N/A   Clear
7:53 AM 23.0 °F 18.4 °F 17.1 °F 78% 30.40 in 10.0 mi WSW 3.5 mph - N/A   Clear
8:53 AM 25.0 °F 19.3 °F 19.0 °F 78% 30.42 in 10.0 mi WSW 4.6 mph - N/A   Clear
9:53 AM 32.0 °F 26.4 °F 21.0 °F 64% 30.42 in 10.0 mi WSW 5.8 mph - N/A   Clear
10:53 AM 37.0 °F 31.6 °F 21.9 °F 54% 30.41 in 10.0 mi West 6.9 mph - N/A   Clear
11:53 AM 42.1 °F 40.2 °F 21.9 °F 45% 30.40 in 10.0 mi WSW 3.5 mph - N/A   Clear
12:53 PM 45.0 °F 43.5 °F 21.9 °F 40% 30.35 in 10.0 mi Variable 3.5 mph - N/A   Clear
1:53 PM 46.9 °F - 21.9 °F 37% 30.31 in 10.0 mi Variable 5.8 mph - N/A   Clear
2:53 PM 50.0 °F - 23.0 °F 35% 30.28 in 10.0 mi South 11.5 mph - N/A   Clear
3:53 PM 52.0 °F - 23.0 °F 32% 30.25 in 10.0 mi South 9.2 mph - N/A   Clear
4:53 PM 50.0 °F - 21.9 °F 33% 30.23 in 10.0 mi SSE 6.9 mph - N/A   Clear
5:53 PM 43.0 °F 39.5 °F 21.9 °F 43% 30.21 in 10.0 mi SSE 5.8 mph - N/A   Clear
6:53 PM 39.0 °F 31.8 °F 21.0 °F 49% 30.20 in 10.0 mi SSW 11.5 mph - N/A   Clear
7:53 PM 41.0 °F 34.7 °F 19.9 °F 43% 30.18 in 10.0 mi South 10.4 mph - N/A   Clear
8:53 PM 37.9 °F 31.5 °F 19.9 °F 48% 30.15 in 10.0 mi SW 9.2 mph - N/A   Clear
9:53 PM 39.9 °F 32.5 °F 19.0 °F 43% 30.12 in 10.0 mi SW 12.7 mph - N/A   Clear
10:53 PM 37.9 °F 31.5 °F 19.0 °F 47% 30.10 in 10.0 mi WSW 9.2 mph - N/A   Clear
11:53 PM 37.0 °F 29.8 °F 19.0 °F 48% 30.07 in 10.0 mi WSW 10.4 mph - N/A   Clear